This is the latest recevied weather packets stored in our database for station/object HA5CD-6. If no packets are shown the sender has not sent any weather packets the latest 10 day(s).
| Time | Temp. | Humidity | Pressure | Rain* | Wind** | Luminosity | Snow |
|---|---|---|---|---|---|---|---|
| 1777957352 | 21.11° C | 31% | 991 hPa | - | - | - | - |
| 1777956750 | 21.67° C | 30% | 991 hPa | - | - | - | - |
| 1777955550 | 20° C | 33% | 991 hPa | - | - | - | - |
| 1777954950 | 18.89° C | 34% | 991 hPa | - | - | - | - |
| 1777954350 | 18.33° C | 36% | 991 hPa | - | - | - | - |
| 1777953749 | 18.33° C | 36% | 991 hPa | - | - | - | - |
| 1777953152 | 15.56° C | 41% | 991 hPa | - | - | - | - |
| 1777952550 | 15° C | 42% | 991 hPa | - | - | - | - |
| 1777951959 | 15° C | 43% | 991 hPa | - | - | - | - |
| 1777951348 | 14.44° C | 43% | 991 hPa | - | - | - | - |
| 1777950758 | 14.44° C | 43% | 991 hPa | - | - | - | - |
| 1777950148 | 14.44° C | 42% | 991 hPa | - | - | - | - |
| 1777949548 | 14.44° C | 43% | 991 hPa | - | - | - | - |
| 1777948948 | 14.44° C | 43% | 991 hPa | - | - | - | - |
| 1777948348 | 14.44° C | 43% | 991 hPa | - | - | - | - |
| 1777947748 | 14.44° C | 43% | 991 hPa | - | - | - | - |
| 1777947148 | 14.44° C | 43% | 991 hPa | - | - | - | - |
| 1777946547 | 14.44° C | 43% | 991 hPa | - | - | - | - |
| 1777945947 | 14.44° C | 42% | 992 hPa | - | - | - | - |
| 1777945347 | 15° C | 42% | 991 hPa | - | - | - | - |
| 1777944747 | 15° C | 42% | 992 hPa | - | - | - | - |
| 1777944147 | 15° C | 41% | 992 hPa | - | - | - | - |
| 1777943550 | 15° C | 40% | 992 hPa | - | - | - | - |
| 1777942347 | 15.56° C | 39% | 992 hPa | - | - | - | - |
| 1777941747 | 15° C | 40% | 992 hPa | - | - | - | - |
* Rain since midnight (hover to see other rain measurements)
** Current wind speed in m/s (hover to see current wind gust speed)